RH
34 26 20 22 24 21 23 26 25 25 28 37 41 39 36 37 41 42 43 39 35 28 24 24 24 25 27 30 30 30 30 33 36 38 38 40 40 42 41 43 41 40 45 44
29 29 22 23 28 28 28 30 29 28 34 34 37 35 33 37 39 36 38 39 33 29 25 24 24 25 26 27 29 31 30 31 36 41 44 44 44 44 48 51 41 43 44 46
27 28 25 25 30 29 34 33 36 32 34 33 36 39 37 38 42 37 37 35 32 27 25 25 26 26 26 28 30 31 32 32 37 39 43 43 45 46 43 44 47 48 46 45
30 28 27 33 31 28 36 36 36 39 39 42 38 48 37 42 43 43 42 38 35 30 27 25 26 28 27 29 32 32 33 34 36 38 39 37 42 43 48 51 55 49 44 44
30 34 35 36 33 33 36 38 40 42 46 55 45 46 32 43 40 42 45 42 37 32 26 26 27 26 28 30 33 36 37 39 39 38 40 44 42 50 51 50 45 45 48 48
36 33 33 35 33 34 36 34 42 58 54 54 44 38 33 42 41 37 46 40 38 34 30 28 28 31 30 32 37 41 41 40 38 40 40 39 41 41 42 42 47 53 58 58
39 40 32 31 37 36 34 34 43 42 58 46 44 41 34 30 29 31 31 38 38 38 32 30 28 30 31 34 37 43 43 40 39 38 38 38 36 38 40 46 53 55 59 60
40 40 38 30 35 38 44 36 44 37 55 54 39 45 33 30 26 31 37 40 38 36 33 31 31 31 31 34 40 42 40 41 37 35 32 34 38 47 49 53 55 59 62 63
36 36 31 27 29 34 42 47 41 39 45 41 37 30 30 25 24 28 33 36 41 37 34 32 32 32 32 36 38 38 40 36 31 32 36 39 42 44 50 50 57 63 62 54
28 29 32 30 29 32 37 32 38 44 31 38 40 36 38 29 26 25 27 31 34 34 34 33 33 33 36 38 38 37 34 32 34 37 41 40 45 47 51 58 61 61 61 64
28 26 27 26 32 32 37 38 39 41 48 45 42 30 32 32 28 29 27 26 29 30 32 33 34 35 37 39 39 36 33 34 38 41 44 47 50 52 58 62 63 65 67 59
35 30 30 25 28 29 36 32 33 38 35 52 66 55 34 30 27 26 27 27 31 31 33 35 37 38 40 43 38 35 37 40 43 45 48 52 56 59 63 64 63 63 60 55
31 27 28 29 36 38 26 26 37 50 59 52 54 38 25 32 28 28 30 30 31 30 30 33 39 44 46 42 37 39 42 45 47 49 55 58 58 60 62 62 61 60 57 55
34 41 31 38 45 42 38 32 31 34 66 41 44 34 31 30 34 32 40 40 39 38 38 39 42 48 47 40 42 44 45 47 50 54 59 62 63 64 63 60 63 58 56 58
38 26 46 42 39 42 40 36 34 34 37 39 35 39 34 38 40 42 42 40 40 40 38 43 44 47 44 44 47 48 49 50 53 59 61 59 60 64 65 66 60 58 59 60
47 37 52 44 51 51 48 42 43 44 39 38 38 40 48 47 49 44 44 44 44 41 39 41 42 44 42 46 50 50 51 53 58 61 61 62 60 60 61 62 62 62 56 50
50 56 60 58 55 53 45 43 44 43 40 41 42 45 52 50 45 46 45 43 42 43 43 43 44 47 46 50 49 53 55 58 62 65 65 63 61 65 63 62 63 56 54 56
54 57 66 79 57 53 30 42 41 42 50 54 52 53 54 53 51 52 51 45 44 46 47 48 51 49 51 52 54 56 59 62 67 71 70 66 66 64 63 64 65 59 60 65
53 62 79 76 88 47 46 40 42 44 45 50 52 55 54 53 61 52 46 48 48 54 57 53 52 52 53 53 56 60 61 67 72 67 68 66 63 65 67 70 64 64 67 72
54 61 61 84 70 60 30 42 37 41 61 57 55 57 56 57 62 59 49 52 54 58 56 53 53 51 54 56 61 63 68 74 73 65 64 65 64 69 74 71 68 66 69 82
66 76 76 91 86 69 50 47 44 54 54 58 54 56 56 64 61 55 60 57 59 63 56 52 55 55 58 61 63 68 71 72 66 66 66 68 70 76 72 65 66 76 94 96
63 81 82 89 86 62 54 45 48 53 60 55 57 58 62 62 63 64 63 63 64 64 54 54 55 59 61 61 68 72 75 66 70 70 74 76 77 70 60 69 82 95 96 97
69 54 73 68 67 52 55 54 56 53 52 58 60 57 62 65 65 64 68 67 66 60 55 54 60 63 63 66 71 76 69 70 73 78 80 79 61 60 66 79 95 96 96 96
64 59 71 66 58 55 51 55 52 54 56 55 60 60 63 66 66 68 69 69 70 61 57 60 63 66 70 71 70 73 71 73 80 85 83 73 62 70 70 83 96 96 96 96
63 58 61 63 60 56 57 56 56 58 61 63 62 62 63 67 68 69 70 71 67 61 62 64 68 72 73 74 74 73 72 80 85 86 86 76 74 76 85 89 97 97 95 94
70 61 66 66 54 58 59 56 56 59 64 67 68 64 63 68 68 69 71 71 66 65 66 68 71 75 76 76 76 74 77 83 89 91 74 74 82 83 90 96 96 96 93 87
Wind_Speed
1 4 6 10 5 3 4 3 3 3 2 5 8 10 11 9 7 9 9 9 9 9 6 6 7 8 7 5 7 7 6 4 2 2 2 1 1 2 2 3 5 6 5 6
5 4 4 3 4 4 3 2 4 5 1 5 3 11 10 6 9 14 15 12 12 6 6 7 7 7 9 8 7 5 5 5 3 2 2 2 2 2 3 2 4 4 5 6
5 1 5 3 2 3 2 4 3 4 4 2 5 9 5 1 2 6 8 10 8 11 10 8 9 10 7 7 8 8 6 5 4 4 2 0 1 1 2 2 3 3 5 4
2 1 3 2 1 4 2 1 2 1 4 3 3 7 7 4 8 3 6 8 9 10 6 7 8 7 9 8 6 7 7 6 5 5 3 3 2 2 2 2 3 5 4 5
4 3 2 2 2 1 3 3 3 2 4 3 3 2 10 5 6 5 5 7 8 10 12 11 10 10 8 5 7 7 6 5 4 5 3 3 2 2 2 2 5 5 5 6
2 2 2 1 3 3 3 4 7 5 3 2 4 5 7 3 4 7 2 7 9 10 10 8 7 3 5 5 5 6 6 5 4 3 2 0 2 4 3 3 4 4 4 5
4 2 2 2 3 4 6 6 4 4 3 7 1 3 8 5 3 4 7 9 8 6 7 8 9 7 7 7 7 5 5 5 2 2 3 2 1 2 4 5 4 6 4 4
4 4 2 3 2 4 2 6 6 4 2 5 1 5 4 2 4 5 5 4 5 6 6 7 7 7 7 7 6 4 3 3 2 3 4 4 2 1 3 4 5 4 4 5
4 3 2 4 2 2 2 2 3 5 2 1 4 6 4 5 7 9 9 5 3 5 6 8 6 5 3 3 2 3 2 1 4 4 4 4 4 5 6 7 5 4 6 7
3 1 2 1 1 4 2 5 3 3 2 4 5 5 4 6 5 8 8 6 4 5 6 5 4 2 0 1 2 4 4 4 3 3 2 3 6 6 6 6 7 7 8 6
2 3 2 2 2 4 2 1 5 4 4 4 2 6 5 2 3 1 4 7 6 6 4 2 1 1 4 4 5 4 5 5 4 4 4 6 6 6 6 6 7 7 7 10
0 4 2 5 1 2 2 4 5 6 3 1 5 8 2 3 5 5 4 5 5 6 6 5 3 3 5 5 5 4 3 3 4 5 5 6 6 6 6 7 8 8 12 12
4 1 2 5 5 2 3 4 4 5 3 6 6 7 1 4 6 6 6 6 6 6 8 7 6 4 4 3 2 2 3 4 5 5 5 6 7 7 8 9 10 10 12 13
3 3 5 7 4 2 3 3 4 5 4 3 7 5 4 6 4 6 6 5 6 7 7 6 3 1 0 1 2 4 6 5 6 5 6 7 7 8 9 10 11 12 12 13
3 2 2 4 4 2 4 5 4 5 5 6 5 7 4 3 4 3 4 6 6 6 6 2 3 5 4 3 4 5 5 6 4 6 7 8 9 8 9 10 12 13 14 13
2 1 1 3 3 4 4 5 6 5 4 7 5 5 1 1 0 4 5 3 2 4 6 7 8 6 5 4 5 6 6 6 5 7 8 8 10 11 12 13 14 15 14 17
3 4 3 4 5 6 6 3 2 2 4 3 5 4 2 2 4 5 4 5 6 6 8 9 8 6 4 4 4 6 6 6 6 6 7 9 11 12 13 14 15 16 17 16
4 4 2 3 4 1 5 1 3 4 1 4 4 3 2 3 5 8 6 6 7 7 8 9 6 3 4 3 4 5 6 6 6 7 8 9 11 13 14 15 16 17 16 17
3 5 3 3 2 7 1 4 5 4 5 5 3 1 2 4 4 5 3 3 6 8 8 7 4 3 2 4 5 5 6 6 7 9 9 10 12 14 15 16 17 16 16 16
5 6 5 2 4 6 5 2 3 4 5 3 2 1 3 4 6 5 5 7 10 9 7 4 3 1 2 4 4 5 6 7 8 9 11 12 13 14 15 16 16 14 15 15
2 3 5 2 3 9 6 3 2 4 6 2 0 2 3 2 5 7 9 8 7 7 6 2 1 2 4 4 4 6 7 8 8 9 11 13 13 13 15 15 15 14 14 14
7 7 4 3 2 8 4 5 6 5 3 2 0 2 3 5 7 8 9 9 9 8 3 1 2 4 4 4 4 6 7 8 8 10 12 13 13 11 12 15 14 14 13 13
3 6 7 10 8 4 0 4 3 4 4 1 1 4 4 7 6 8 8 9 8 5 2 1 2 5 5 5 5 6 7 7 9 11 13 13 15 14 13 14 14 12 11 11
4 4 4 3 3 4 5 2 4 2 4 4 2 5 5 7 8 8 8 8 5 3 3 2 4 6 6 6 6 5 7 8 9 11 12 12 14 15 13 10 9 9 10 11
5 5 5 5 3 4 2 3 4 3 1 2 5 5 5 5 7 6 7 6 4 3 3 3 4 5 6 6 6 6 7 8 10 10 11 12 11 12 12 10 10 10 11 13
5 7 6 6 5 5 4 5 5 5 2 1 4 7 7 3 7 6 7 4 4 5 3 4 5 5 6 6 6 7 7 7 9 10 11 11 10 10 9 10 11 14 18 21
Wind_Direction
54 106 193 210 192 138 145 197 236 256 228 159 229 264 263 204 204 208 202 198 207 206 205 190 186 172 162 172 169 173 162 180 134 81 83 36 328 324 335 352 349 346 348 351
43 216 216 159 148 159 167 214 256 283 281 174 254 261 258 211 215 207 199 196 202 183 188 200 199 186 184 177 193 186 193 176 161 142 181 170 202 247 251 291 320 348 356 343
146 261 140 148 144 148 219 193 217 230 338 326 342 293 297 324 242 216 206 195 184 186 189 205 208 208 188 186 195 196 200 192 181 169 126 317 302 315 336 344 322 331 324 326
192 290 141 113 163 129 262 188 112 52 47 262 31 284 285 323 302 257 200 181 178 182 203 211 211 218 208 210 194 199 197 192 194 175 173 176 185 240 232 239 261 296 311 317
241 138 135 165 210 148 213 68 64 73 83 8 309 102 272 357 340 324 225 210 199 195 198 206 209 215 218 183 209 203 192 202 202 202 196 181 220 225 283 293 309 314 313 314
61 341 73 132 76 66 102 68 44 52 84 349 256 146 290 347 313 308 262 201 204 204 210 222 228 218 226 214 206 189 192 226 229 229 175 96 286 300 310 303 306 303 290 288
9 326 350 85 101 34 69 57 327 347 8 227 17 101 248 301 321 297 297 228 210 205 205 219 218 208 214 203 207 204 206 252 293 15 14 32 358 300 293 294 284 297 289 287
158 315 164 1 123 175 147 147 160 245 227 284 104 237 263 281 324 321 323 226 160 201 220 222 214 214 207 205 207 212 237 269 359 41 36 25 6 295 278 268 276 272 273 270
140 288 20 48 45 102 184 183 176 112 17 55 263 298 14 357 360 12 19 43 201 223 228 229 238 226 226 279 255 240 233 72 50 42 30 360 330 310 287 288 288 279 276 283
181 49 6 344 115 34 131 160 72 7 235 271 299 291 240 349 353 4 15 14 322 318 332 348 2 357 276 191 78 75 70 73 55 32 348 304 302 306 294 296 287 280 281 272
103 100 294 39 174 183 48 9 58 119 137 181 307 279 228 273 181 162 325 354 338 325 329 333 201 119 102 98 87 72 56 46 14 334 308 306 300 296 284 274 273 273 276 290
26 133 224 220 305 201 184 186 140 124 229 117 145 273 305 2 354 0 47 19 16 36 34 12 13 83 72 60 51 53 30 358 311 292 286 284 276 277 290 288 279 281 286 289
182 28 22 353 5 3 225 195 111 106 88 200 133 262 351 20 10 22 62 39 24 25 17 7 35 47 63 69 59 359 321 301 294 287 294 300 303 304 294 289 284 285 285 290
81 123 163 186 201 174 253 214 149 130 116 188 225 284 279 320 330 29 33 22 12 5 355 345 347 358 292 259 318 309 302 298 296 293 293 287 285 279 281 288 285 285 288 288
95 177 190 247 254 281 248 247 219 202 191 188 239 216 318 359 76 55 357 358 8 3 354 331 236 238 242 282 289 294 292 292 296 299 304 304 298 287 285 286 290 292 291 283
7 198 40 286 15 2 277 263 247 229 213 250 242 266 355 138 270 352 345 341 348 302 277 265 257 246 243 265 296 305 305 310 322 313 304 298 302 306 302 296 296 294 290 297
97 116 71 275 355 330 313 218 225 219 181 203 207 192 200 287 327 312 310 248 260 280 284 277 275 254 253 274 289 301 305 312 312 304 300 300 301 301 300 298 298 294 302 298
125 94 81 247 5 337 239 305 245 185 132 132 122 190 244 288 285 286 269 253 284 292 284 282 263 245 270 277 295 312 319 317 309 297 290 294 300 300 301 300 296 299 302 299
49 113 90 122 202 288 278 180 187 172 256 192 167 15 314 302 313 287 265 269 280 278 274 266 226 220 268 317 330 329 321 309 302 303 299 298 306 302 302 301 304 304 302 302
60 65 113 118 138 218 247 188 108 89 286 142 134 314 298 350 349 259 308 311 300 291 282 245 234 283 329 313 331 324 308 308 305 306 304 302 303 301 302 300 303 303 302 300
55 24 162 145 229 285 243 171 110 89 238 160 85 312 293 273 222 284 305 301 291 280 274 166 116 312 312 331 338 321 316 308 296 301 306 304 303 301 297 302 306 306 306 303
175 145 183 88 81 288 177 80 173 199 201 142 317 309 307 287 294 291 293 293 301 292 238 136 340 320 314 314 315 299 294 290 297 307 306 301 302 298 309 309 311 307 303 300
273 184 183 178 214 246 310 136 155 150 143 154 14 334 303 284 276 293 285 292 297 282 279 315 314 308 305 295 284 300 296 305 309 308 304 306 313 320 312 318 310 309 309 303
224 174 187 82 249 193 142 109 101 88 72 31 325 286 288 273 290 295 292 299 300 293 295 316 320 306 300 305 312 300 302 304 306 304 305 302 326 321 322 314 307 307 306 306
204 135 173 256 276 68 350 133 114 77 97 255 276 242 270 273 286 276 291 301 290 287 288 291 281 286 294 310 313 310 305 309 307 309 307 316 317 320 317 312 313 314 308 321
187 189 171 229 206 153 186 163 165 167 175 341 6 340 334 304 301 299 291 266 249 259 271 280 283 291 298 312 311 307 307 307 305 315 327 324 321 316 318 317 316 312 319 337